TimeEDT,TemperatureF,Dew PointF,Humidity,Sea Level PressureIn,VisibilityMPH,Wind Direction,Wind SpeedMPH,Gust SpeedMPH,PrecipitationIn,Events,Conditions,WindDirDegrees,DateUTC
12:51 AM,71.1,59.0,66,29.73,10.0,West,8.1,-,N/A,,Scattered Clouds,270,2013-06-12 04:51:00
1:51 AM,71.1,60.1,68,29.72,10.0,WSW,10.4,-,N/A,,Mostly Cloudy,250,2013-06-12 05:51:00
2:51 AM,70.0,60.1,71,29.72,10.0,West,12.7,-,N/A,,Mostly Cloudy,260,2013-06-12 06:51:00
3:51 AM,69.1,59.0,70,29.72,10.0,West,11.5,-,N/A,,Mostly Cloudy,270,2013-06-12 07:51:00
4:51 AM,68.0,59.0,73,29.74,10.0,West,8.1,-,N/A,,Partly Cloudy,270,2013-06-12 08:51:00
5:51 AM,68.0,57.0,68,29.76,10.0,NW,9.2,-,N/A,,Scattered Clouds,320,2013-06-12 09:51:00
6:51 AM,68.0,52.0,56,29.78,10.0,NW,18.4,-,N/A,,Scattered Clouds,320,2013-06-12 10:51:00
7:51 AM,68.0,51.1,55,29.79,10.0,WNW,19.6,31.1,N/A,,Mostly Cloudy,300,2013-06-12 11:51:00
8:51 AM,68.0,51.1,55,29.80,10.0,NW,18.4,27.6,N/A,,Mostly Cloudy,310,2013-06-12 12:51:00
9:51 AM,72.0,51.1,48,29.79,10.0,WNW,19.6,27.6,N/A,,Scattered Clouds,300,2013-06-12 13:51:00
10:51 AM,73.0,52.0,48,29.80,10.0,NW,13.8,23.0,N/A,,Scattered Clouds,320,2013-06-12 14:51:00
11:51 AM,75.9,53.1,45,29.80,10.0,NW,13.8,26.5,N/A,,Scattered Clouds,310,2013-06-12 15:51:00
12:51 PM,78.1,52.0,40,29.80,10.0,NW,19.6,28.8,N/A,,Scattered Clouds,310,2013-06-12 16:51:00
1:51 PM,79.0,51.1,38,29.80,10.0,NW,24.2,31.1,N/A,,Scattered Clouds,320,2013-06-12 17:51:00
2:51 PM,79.0,52.0,39,29.81,10.0,NNW,17.3,28.8,N/A,,Scattered Clouds,330,2013-06-12 18:51:00
3:51 PM,79.0,53.1,40,29.80,10.0,NW,16.1,28.8,N/A,,Scattered Clouds,320,2013-06-12 19:51:00
4:51 PM,79.0,52.0,39,29.80,10.0,West,13.8,23.0,N/A,,Scattered Clouds,280,2013-06-12 20:51:00
5:51 PM,78.1,51.1,39,29.81,10.0,North,15.0,26.5,N/A,,Scattered Clouds,350,2013-06-12 21:51:00
6:51 PM,77.0,51.1,40,29.81,10.0,NNW,12.7,23.0,N/A,,Scattered Clouds,340,2013-06-12 22:51:00
7:51 PM,75.9,51.1,42,29.83,10.0,NNW,13.8,-,N/A,,Scattered Clouds,340,2013-06-12 23:51:00
8:51 PM,73.9,51.1,45,29.85,10.0,NNW,9.2,-,N/A,,Mostly Cloudy,330,2013-06-13 00:51:00
9:51 PM,71.1,52.0,51,29.85,10.0,North,5.8,-,N/A,,Scattered Clouds,360,2013-06-13 01:51:00
10:51 PM,71.1,52.0,51,29.84,10.0,NNE,3.5,-,N/A,,Scattered Clouds,30,2013-06-13 02:51:00
11:51 PM,71.1,52.0,51,29.83,10.0,NE,3.5,-,N/A,,Mostly Cloudy,40,2013-06-13 03:51:00